Sun Valley, CA

12:54 AM PDT on August 31, 2016 (GMT -0700)
Burbank-Glendale-Pasadena

Weather History for KBUR - July, 1994

Change the Weather History Date:

Sunday, July 17, 1994

  Actual Average Record
Temperature  
Mean Temperature 72 °F 75 °F  
Max Temperature 82 °F 87 °F 104 °F (1979)
Min Temperature 63 °F 63 °F 52 °F (1940)
Degree Days  
Heating Degree Days 0 0  
Month to date heating degree days 0  
Since 1 June heating degree days 13  
Since 1 July heating degree days 0  
Cooling Degree Days 8 10  
Month to date cooling degree days 152  
Year to date cooling degree days 424  
Since 1 June cooling degree days 300  
Growing Degree Days 22 (Base 50)    
Moisture  
Dew Point 59 °F    
Average Humidity 66    
Maximum Humidity 87    
Minimum Humidity 42    
Precipitation  
Precipitation 0.00 in 0.00 in 0.03 in (1987)
Month to date precipitation 0.01  
Year to date precipitation 12.56  
Sea Level Pressure  
Sea Level Pressure 30.00 in    
Wind  
Wind Speed 3 mph (SE)    
Max Wind Speed 9 mph    
Max Gust Speed -    
Visibility 9 miles    
Events      
T = Trace of Precipitation, MM = Missing Value Source: NWS Daily Summary

Daily Weather History Graph

Daily Weather History Graph

Search for Another Location

Airport or City:

Trip Planner

Search our weather history database for the weather conditions in past years. The results will help you decide how hot, cold, wet, or windy it might be!

Date:

Astronomy

Jul. 17, 1994 Rise Set
Actual Time 5:53 AM PDT 8:04 PM PDT
Civil Twilight 5:25 AM PDT 8:33 PM PDT
Nautical Twilight 4:50 AM PDT 9:07 PM PDT
Astronomical Twilight 4:13 AM PDT 9:45 PM PDT
Moon 3:12 PM PDT (7/17) 1:03 AM PDT (7/17)
Length of Visible Light 15h 07m
Length of Day
14h 10m
Waxing Gibbous, 70% of the Moon is Illuminated
Jul 17
Waxing Gibbous
Jul 22
Full
Jul 30
Last Quarter
Aug 7
New
Aug 13
First Quarter

Hourly Weather History & Observations

Time (PDT) Temp. Heat Index Dew Point Humidity Pressure Visibility Wind Dir Wind Speed Gust Speed Precip Events Conditions
12:00 AM 68.0 °F - 59.0 °F 73% 29.99 in 10.0 mi ESE 4.6 mph - N/A   Clear
1:00 AM 66.9 °F - 59.0 °F 76% 29.98 in 10.0 mi Calm Calm - N/A   Clear
2:00 AM 66.9 °F - 59.0 °F 76% 29.97 in 10.0 mi Calm Calm - N/A   Clear
3:00 AM 65.8 °F - 54.0 °F 65% 29.98 in 10.0 mi Calm Calm - N/A   Clear
4:00 AM 63.9 °F - 57.9 °F 81% 29.98 in 10.0 mi Calm Calm - N/A   Clear
5:00 AM 63.9 °F - 59.0 °F 84% 29.98 in 7.0 mi Calm Calm - N/A   Clear
6:00 AM 63.0 °F - 57.9 °F 84% 30.00 in 6.0 mi Calm Calm - N/A   Drizzle
7:00 AM 63.9 °F - 57.9 °F 81% 29.99 in 7.0 mi Calm Calm - N/A   Scattered Clouds
8:00 AM 66.9 °F - 59.0 °F 76% 30.00 in 7.0 mi SE 5.8 mph - N/A   Scattered Clouds
9:00 AM 70.0 °F - 59.0 °F 68% 30.00 in 7.0 mi Calm Calm - N/A   Scattered Clouds
10:00 AM 72.0 °F - 68.0 °F 87% 30.03 in 7.0 mi ESE 8.1 mph - N/A   Scattered Clouds
11:00 AM 74.8 °F - 59.9 °F 60% 30.03 in 7.0 mi ESE 6.9 mph - N/A   Scattered Clouds
12:00 PM 79.0 °F - 59.9 °F 52% 30.03 in 6.0 mi SE 5.8 mph - N/A   Drizzle
1:00 PM 81.0 °F 81.6 °F 59.9 °F 49% 30.03 in 6.0 mi SE 5.8 mph - N/A   Drizzle
2:00 PM 82.9 °F 82.8 °F 59.0 °F 44% 30.01 in 7.0 mi SE 5.8 mph - N/A   Scattered Clouds
3:00 PM 81.9 °F 81.8 °F 57.9 °F 44% 30.01 in 7.0 mi SE 8.1 mph - N/A   Scattered Clouds
4:00 PM 81.9 °F 81.6 °F 56.8 °F 42% 29.99 in 7.0 mi SSE 8.1 mph - N/A   Mostly Cloudy
5:00 PM 79.0 °F - 57.9 °F 48% 29.99 in 7.0 mi SSE 9.2 mph - N/A   Mostly Cloudy
6:00 PM 72.9 °F - 57.9 °F 59% 29.99 in 15.0 mi SSE 8.1 mph - N/A   Scattered Clouds
7:00 PM 72.9 °F - 57.9 °F 59% 30.00 in 15.0 mi SE 8.1 mph - N/A   Mostly Cloudy
8:00 PM 70.9 °F - 57.9 °F 63% 30.02 in 15.0 mi Calm Calm - N/A   Mostly Cloudy
9:00 PM 70.0 °F - 57.9 °F 65% 30.03 in 15.0 mi Calm Calm - N/A   Mostly Cloudy
10:00 PM 68.9 °F - 59.0 °F 71% 30.04 in 10.0 mi Calm Calm - N/A   Clear
11:00 PM 68.9 °F - 59.0 °F 71% 30.04 in 7.0 mi Calm Calm - N/A   Clear